| time (UTC) | temp F | wind direction | speed MPH | gust MPH | rain 1hr in | rain 24hr in | rain mn in | humidity % | barometer mb |
| 20260905095804 | 57 | 67 | 0.0 | 0.0 | 0.00 | 0.00 | 0.00 | 83 | 1006.5 |
| 20260905095306 | 57 | 67 | 0.0 | 0.0 | 0.00 | 0.00 | 0.00 | 83 | 1006.5 |
| 20260905093305 | 57 | 67 | 0.0 | 0.0 | 0.00 | 0.00 | 0.00 | 83 | 1006.3 |
| 20260905092804 | 57 | 67 | 0.0 | 0.0 | 0.00 | 0.00 | 0.00 | 83 | 1006.3 |
| 20260905092306 | 57 | 67 | 0.0 | 0.0 | 0.00 | 0.00 | 0.00 | 83 | 1006.3 |
| 20260905091805 | 57 | 67 | 0.0 | 0.0 | 0.00 | 0.00 | 0.00 | 82 | 1006.3 |
| 20260905085804 | 58 | 67 | 0.0 | 0.0 | 0.00 | 0.00 | 0.00 | 82 | 1006.3 |
| 20260905085306 | 58 | 67 | 0.0 | 0.0 | 0.00 | 0.00 | 0.00 | 82 | 1006.2 |
| 20260905084804 | 58 | 67 | 0.0 | 0.0 | 0.00 | 0.00 | 0.00 | 82 | 1006.2 |
| 20260905084305 | 58 | 67 | 0.0 | 0.0 | 0.00 | 0.00 | 0.00 | 82 | 1006.2 |
| 20260905083805 | 58 | 67 | 0.0 | 0.0 | 0.00 | 0.00 | 0.00 | 82 | 1006.2 |
| 20260905082804 | 58 | 67 | 0.0 | 0.0 | 0.00 | 0.00 | 0.00 | 81 | 1006.2 |
| 20260905081804 | 59 | 67 | 0.0 | 0.0 | 0.00 | 0.00 | 0.00 | 81 | 1006.2 |
| 20260905081304 | 59 | 67 | 0.0 | 0.0 | 0.00 | 0.00 | 0.00 | 81 | 1006.2 |
| 20260905080304 | 59 | 67 | 0.0 | 0.0 | 0.00 | 0.00 | 0.00 | 81 | 1006.2 |
| 20260905071805 | 60 | 67 | 0.0 | 0.0 | 0.00 | 0.00 | 0.00 | 80 | 1006.5 |
| 20260905070304 | 60 | 67 | 0.0 | 0.0 | 0.00 | 0.00 | 0.00 | 80 | 1006.5 |
| 20260905065804 | 60 | 67 | 0.0 | 0.0 | 0.00 | 0.00 | 0.00 | 80 | 1006.5 |
| 20260905064304 | 61 | 67 | 0.0 | 0.0 | 0.00 | 0.00 | 0.00 | 79 | 1006.5 |
| 20260905063804 | 61 | 67 | 0.0 | 0.0 | 0.00 | 0.00 | 0.00 | 79 | 1006.5 |
| 20260905062306 | 61 | 67 | 0.0 | 0.0 | 0.00 | 0.00 | 0.00 | 79 | 1006.5 |
| 20260905061804 | 61 | 67 | 0.0 | 0.0 | 0.00 | 0.00 | 0.00 | 78 | 1006.5 |
| 20260905060305 | 61 | 67 | 0.0 | 0.0 | 0.00 | 0.00 | 0.00 | 78 | 1006.5 |
| 20260905054805 | 62 | 67 | 0.0 | 0.0 | 0.00 | 0.00 | 0.00 | 77 | 1006.5 |
| 20260905054304 | 62 | 67 | 0.0 | 0.0 | 0.00 | 0.00 | 0.00 | 76 | 1006.6 |
| 20260905053305 | 62 | 67 | 0.0 | 0.0 | 0.00 | 0.00 | 0.00 | 75 | 1006.6 |
| 20260905052804 | 62 | 67 | 0.0 | 0.0 | 0.00 | 0.00 | 0.00 | 75 | 1006.6 |
| 20260905051305 | 63 | 67 | 0.0 | 0.0 | 0.00 | 0.00 | 0.00 | 74 | 1006.6 |
| 20260905050805 | 63 | 67 | 0.0 | 0.0 | 0.00 | 0.00 | 0.00 | 73 | 1006.8 |
| 20260905050304 | 63 | 67 | 0.0 | 0.0 | 0.00 | 0.00 | 0.00 | 73 | 1006.8 |
| 20260905044304 | 64 | 67 | 0.0 | 0.0 | 0.00 | 0.00 | 0.00 | 71 | 1006.8 |
| 20260905043804 | 64 | 67 | 0.0 | 0.0 | 0.00 | 0.00 | 0.00 | 71 | 1006.8 |
| 20260905042307 | 65 | 67 | 0.0 | 0.0 | 0.00 | 0.00 | 0.00 | 71 | 1006.8 |
| 20260905035306 | 65 | 67 | 0.0 | 0.0 | 0.00 | 0.00 | 0.00 | 70 | 1006.8 |
| 20260905034804 | 65 | 67 | 0.0 | 0.0 | 0.00 | 0.00 | 0.00 | 71 | 1006.8 |
| 20260905033805 | 65 | 67 | 0.0 | 0.0 | 0.00 | 0.00 | 0.00 | 69 | 1006.8 |
| 20260905031804 | 66 | 67 | 0.0 | 0.0 | 0.00 | 0.00 | 0.00 | 70 | 1006.8 |
| 20260905030305 | 66 | 67 | 0.0 | 0.0 | 0.00 | 0.00 | 0.00 | 70 | 1006.8 |
| 20260905024804 | 66 | 67 | 0.0 | 0.0 | 0.00 | 0.00 | 0.00 | 71 | 1007.3 |
| 20260905023305 | 66 | 67 | 0.0 | 0.0 | 0.00 | 0.00 | 0.00 | 70 | 1007.3 |
| 20260905021805 | 66 | 67 | 0.0 | 0.0 | 0.00 | 0.00 | 0.00 | 70 | 1007.3 |
| 20260905021305 | 66 | 67 | 0.0 | 0.0 | 0.00 | 0.00 | 0.00 | 70 | 1007.3 |
| 20260905020805 | 66 | 67 | 0.0 | 0.0 | 0.00 | 0.00 | 0.00 | 70 | 1007.3 |
| 20260905020304 | 67 | 67 | 0.0 | 0.0 | 0.00 | 0.00 | 0.00 | 71 | 1007.3 |
| 20260905015306 | 67 | 67 | 0.0 | 0.0 | 0.00 | 0.00 | 0.00 | 72 | 1007.3 |
| 20260905014804 | 67 | 72 | 0.0 | 2.0 | 0.00 | 0.00 | 0.00 | 72 | 1007.3 |
| 20260905014304 | 67 | 72 | 0.0 | 0.0 | 0.00 | 0.00 | 0.00 | 71 | 1007.3 |
| 20260905010305 | 67 | 17 | 0.0 | 2.0 | 0.00 | 0.00 | 0.00 | 71 | 1007.2 |
| 20260905005805 | 67 | 26 | 0.0 | 0.0 | 0.00 | 0.00 | 0.00 | 70 | 1007.2 |
| 20260905004304 | 67 | 26 | 0.0 | 0.0 | 0.00 | 0.01 | 0.00 | 70 | 1007.2 |
| 20260905001804 | 68 | 26 | 0.0 | 0.0 | 0.00 | 0.01 | 0.00 | 69 | 1006.8 |
| 20260905001305 | 68 | 26 | 0.0 | 0.0 | 0.00 | 0.01 | 0.00 | 69 | 1006.8 |
| 20260904235306 | 69 | 26 | 0.0 | 0.0 | 0.00 | 0.01 | 0.00 | 64 | 1006.8 |
| 20260904233805 | 69 | 26 | 0.0 | 0.0 | 0.00 | 0.01 | 0.00 | 64 | 1006.4 |
| 20260904233304 | 69 | 26 | 0.0 | 0.0 | 0.00 | 0.01 | 0.00 | 63 | 1006.4 |
| 20260904232306 | 70 | 26 | 0.0 | 0.0 | 0.00 | 0.01 | 0.00 | 62 | 1006.4 |
| 20260904231804 | 70 | 26 | 0.0 | 0.0 | 0.00 | 0.01 | 0.00 | 62 | 1006.4 |
| 20260904231304 | 70 | 26 | 0.0 | 0.0 | 0.00 | 0.01 | 0.00 | 60 | 1006.4 |
| 20260904230805 | 70 | 26 | 0.0 | 0.0 | 0.00 | 0.01 | 0.00 | 60 | 1006.4 |
| 20260904225804 | 71 | 26 | 0.0 | 0.0 | 0.00 | 0.01 | 0.00 | 60 | 1006.4 |
| 20260904225306 | 71 | 26 | 0.0 | 0.0 | 0.00 | 0.01 | 0.00 | 62 | 1006.3 |
| 20260904224804 | 71 | 26 | 0.0 | 0.0 | 0.00 | 0.01 | 0.00 | 62 | 1006.3 |
| 20260904223305 | 71 | 26 | 0.0 | 0.0 | 0.00 | 0.01 | 0.00 | 59 | 1006.2 |
| 20260904222805 | 72 | 26 | 0.0 | 0.0 | 0.00 | 0.01 | 0.00 | 60 | 1006.2 |
| 20260904221804 | 72 | 26 | 0.0 | 0.0 | 0.00 | 0.01 | 0.00 | 60 | 1006.0 |
| 20260904220805 | 73 | 26 | 0.0 | 0.0 | 0.00 | 0.01 | 0.00 | 59 | 1006.0 |
| 20260904220304 | 73 | 26 | 0.0 | 0.0 | 0.00 | 0.01 | 0.00 | 57 | 1006.0 |
| 20260904215805 | 73 | 26 | 0.0 | 0.0 | 0.00 | 0.01 | 0.00 | 54 | 1006.0 |
| 20260904215305 | 74 | 25 | 0.0 | 1.0 | 0.00 | 0.01 | 0.00 | 56 | 1006.0 |
| 20260904213804 | 74 | 1 | 0.0 | 2.0 | 0.00 | 0.01 | 0.00 | 56 | 1006.0 |
| 20260904213304 | 74 | 69 | 0.0 | 0.0 | 0.00 | 0.01 | 0.00 | 55 | 1006.0 |
| 20260904211805 | 75 | 31 | 0.0 | 0.0 | 0.00 | 0.01 | 0.00 | 56 | 1006.0 |
| 20260904211305 | 75 | 30 | 0.0 | 3.0 | 0.00 | 0.01 | 0.00 | 56 | 1006.0 |
| 20260904203805 | 77 | 138 | 0.0 | 2.0 | 0.00 | 0.01 | 0.00 | 45 | 1006.0 |
| 20260904203304 | 77 | 304 | 0.0 | 3.0 | 0.00 | 0.01 | 0.00 | 45 | 1006.0 |
| 20260904202306 | 77 | 200 | 0.0 | 3.0 | 0.00 | 0.01 | 0.00 | 46 | 1006.0 |
| 20260904201304 | 77 | 27 | 1.0 | 5.0 | 0.00 | 0.01 | 0.00 | 46 | 1006.0 |
| 20260904195804 | 77 | 214 | 1.0 | 5.0 | 0.00 | 0.01 | 0.00 | 48 | 1006.0 |
| 20260904193805 | 77 | 287 | 0.0 | 3.0 | 0.00 | 0.01 | 0.00 | 47 | 1006.3 |
| 20260904193304 | 76 | 164 | 0.0 | 0.0 | 0.00 | 0.01 | 0.00 | 49 | 1006.3 |
| 20260904192804 | 76 | 118 | 0.0 | 1.0 | 0.00 | 0.01 | 0.00 | 48 | 1006.3 |
| 20260904191305 | 76 | 262 | 0.0 | 2.0 | 0.00 | 0.01 | 0.00 | 49 | 1006.3 |
| 20260904185804 | 77 | 62 | 0.0 | 0.0 | 0.00 | 0.01 | 0.00 | 51 | 1006.2 |
| 20260904185306 | 77 | 59 | 0.0 | 3.0 | 0.00 | 0.01 | 0.00 | 46 | 1006.2 |
| 20260904184805 | 77 | 21 | 0.0 | 1.0 | 0.00 | 0.01 | 0.00 | 47 | 1006.2 |
| 20260904184305 | 77 | 293 | 1.0 | 6.0 | 0.00 | 0.01 | 0.00 | 47 | 1006.2 |
| 20260904183804 | 77 | 44 | 1.0 | 7.0 | 0.00 | 0.01 | 0.00 | 49 | 1006.2 |
| 20260904182306 | 78 | 239 | 2.0 | 7.0 | 0.00 | 0.01 | 0.00 | 42 | 1006.3 |
| 20260904181805 | 77 | 30 | 0.0 | 0.0 | 0.00 | 0.01 | 0.00 | 42 | 1006.3 |
| 20260904181304 | 77 | 93 | 0.0 | 0.0 | 0.00 | 0.01 | 0.00 | 45 | 1006.3 |
| 20260904175805 | 77 | 46 | 1.0 | 6.0 | 0.00 | 0.01 | 0.00 | 46 | 1006.3 |
| 20260904175306 | 77 | 271 | 0.0 | 1.0 | 0.00 | 0.01 | 0.00 | 51 | 1006.3 |
| 20260904174804 | 77 | 93 | 1.0 | 6.0 | 0.00 | 0.01 | 0.00 | 46 | 1006.3 |
| 20260904173805 | 75 | 98 | 0.0 | 3.0 | 0.00 | 0.01 | 0.00 | 55 | 1006.3 |
| 20260904172804 | 76 | 168 | 1.0 | 3.0 | 0.00 | 0.01 | 0.00 | 52 | 1006.3 |
| 20260904170805 | 77 | 142 | 0.0 | 0.0 | 0.00 | 0.01 | 0.00 | 48 | 1007.3 |
| 20260904170304 | 76 | 5 | 0.0 | 1.0 | 0.00 | 0.01 | 0.00 | 50 | 1007.3 |
| 20260904164804 | 75 | 14 | 0.0 | 1.0 | 0.00 | 0.01 | 0.00 | 58 | 1007.3 |
| 20260904163805 | 76 | 248 | 0.0 | 3.0 | 0.00 | 0.01 | 0.00 | 56 | 1007.3 |
| 20260904163304 | 76 | 342 | 0.0 | 0.0 | 0.00 | 0.01 | 0.00 | 59 | 1007.3 |
| 20260904162306 | 76 | 342 | 0.0 | 0.0 | 0.00 | 0.01 | 0.00 | 52 | 1007.3 |
| 20260904161305 | 77 | 133 | 0.0 | 3.0 | 0.00 | 0.01 | 0.00 | 52 | 1007.3 |
| 20260904160804 | 77 | 240 | 0.0 | 3.0 | 0.00 | 0.01 | 0.00 | 51 | 1007.3 |
| 20260904160304 | 77 | 49 | 0.0 | 5.0 | 0.00 | 0.01 | 0.00 | 58 | 1007.3 |
| 20260904154805 | 76 | 87 | 2.0 | 3.0 | 0.00 | 0.01 | 0.00 | 54 | 1007.3 |
| 20260904154305 | 76 | 151 | 0.0 | 0.0 | 0.00 | 0.01 | 0.00 | 63 | 1007.3 |
| 20260904153804 | 75 | 126 | 0.0 | 0.0 | 0.00 | 0.01 | 0.00 | 59 | 1007.3 |
| 20260904152804 | 75 | 123 | 0.0 | 1.0 | 0.00 | 0.01 | 0.00 | 63 | 1007.3 |
| 20260904151805 | 74 | 123 | 0.0 | 0.0 | 0.00 | 0.01 | 0.00 | 65 | 1007.3 |
| 20260904151304 | 74 | 123 | 0.0 | 0.0 | 0.00 | 0.01 | 0.00 | 62 | 1007.3 |
| 20260904150304 | 74 | 126 | 0.0 | 0.0 | 0.00 | 0.01 | 0.00 | 63 | 1007.3 |
| 20260904145805 | 73 | 126 | 0.0 | 0.0 | 0.00 | 0.01 | 0.00 | 66 | 1007.3 |
| 20260904144804 | 73 | 122 | 0.0 | 0.0 | 0.00 | 0.01 | 0.00 | 70 | 1007.4 |
| 20260904143804 | 69 | 122 | 0.0 | 0.0 | 0.00 | 0.01 | 0.00 | 77 | 1007.4 |
| 20260904142306 | 69 | 122 | 0.0 | 0.0 | 0.00 | 0.01 | 0.00 | 79 | 1007.9 |
| 20260904141804 | 69 | 122 | 0.0 | 0.0 | 0.00 | 0.01 | 0.00 | 81 | 1007.9 |
| 20260904140804 | 67 | 122 | 0.0 | 0.0 | 0.00 | 0.01 | 0.00 | 85 | 1007.9 |
| 20260904140304 | 67 | 122 | 0.0 | 0.0 | 0.00 | 0.01 | 0.00 | 85 | 1007.9 |
| 20260904135306 | 66 | 122 | 0.0 | 0.0 | 0.00 | 0.01 | 0.00 | 90 | 1007.9 |
| 20260904134804 | 65 | 122 | 0.0 | 0.0 | 0.00 | 0.01 | 0.00 | 91 | 1007.9 |
| 20260904134304 | 65 | 122 | 0.0 | 0.0 | 0.00 | 0.01 | 0.00 | 91 | 1007.9 |
| 20260904133804 | 65 | 122 | 0.0 | 0.0 | 0.00 | 0.01 | 0.00 | 91 | 1007.9 |
| 20260904132306 | 63 | 122 | 0.0 | 0.0 | 0.00 | 0.01 | 0.00 | 90 | 1007.9 |
| 20260904131305 | 63 | 122 | 0.0 | 0.0 | 0.00 | 0.01 | 0.00 | 90 | 1007.9 |
| 20260904125804 | 63 | 122 | 0.0 | 0.0 | 0.00 | 0.01 | 0.00 | 90 | 1007.9 |
| 20260904125305 | 63 | 122 | 0.0 | 0.0 | 0.00 | 0.01 | 0.00 | 90 | 1007.9 |
| 20260904124305 | 62 | 122 | 0.0 | 0.0 | 0.00 | 0.01 | 0.00 | 90 | 1007.9 |
| 20260904122805 | 62 | 122 | 0.0 | 0.0 | 0.00 | 0.01 | 0.00 | 90 | 1007.8 |
| 20260904122306 | 62 | 122 | 0.0 | 0.0 | 0.00 | 0.01 | 0.00 | 90 | 1007.8 |
| 20260904121305 | 62 | 122 | 0.0 | 0.0 | 0.00 | 0.01 | 0.00 | 90 | 1007.3 |
| 20260904120805 | 62 | 122 | 0.0 | 0.0 | 0.00 | 0.01 | 0.00 | 89 | 1007.3 |
| 20260904120305 | 62 | 122 | 0.0 | 0.0 | 0.00 | 0.01 | 0.00 | 89 | 1007.3 |
| 20260904115306 | 62 | 122 | 0.0 | 0.0 | 0.00 | 0.01 | 0.00 | 89 | 1007.3 |
| 20260904114304 | 62 | 122 | 0.0 | 0.0 | 0.00 | 0.01 | 0.00 | 89 | 1007.3 |
| 20260904113804 | 62 | 122 | 0.0 | 0.0 | 0.00 | 0.01 | 0.00 | 89 | 1007.3 |
| 20260904112805 | 62 | 122 | 0.0 | 0.0 | 0.00 | 0.01 | 0.00 | 89 | 1007.3 |
| 20260904111804 | 62 | 122 | 0.0 | 0.0 | 0.00 | 0.01 | 0.00 | 89 | 1007.3 |
| 20260904111304 | 62 | 122 | 0.0 | 0.0 | 0.00 | 0.01 | 0.00 | 89 | 1007.3 |
| 20260904110304 | 62 | 122 | 0.0 | 0.0 | 0.00 | 0.01 | 0.00 | 89 | 1007.3 |
| 20260904105306 | 62 | 122 | 0.0 | 0.0 | 0.00 | 0.01 | 0.00 | 89 | 1007.3 |
| 20260904104805 | 62 | 122 | 0.0 | 0.0 | 0.00 | 0.01 | 0.00 | 89 | 1007.3 |
| 20260904103804 | 62 | 122 | 0.0 | 0.0 | 0.00 | 0.01 | 0.00 | 89 | 1007.2 |
| 20260904103304 | 62 | 122 | 0.0 | 0.0 | 0.00 | 0.01 | 0.00 | 89 | 1007.2 |
| 20260904102306 | 62 | 122 | 0.0 | 0.0 | 0.00 | 0.01 | 0.00 | 89 | 1006.9 |
| 20260904100805 | 62 | 122 | 0.0 | 0.0 | 0.00 | 0.01 | 0.00 | 89 | 1006.9 |